Regional Weather Roundup
Issued by NWS

Home | Current Version | Previous Version | Graphics & Text | Print | Product List | Glossary On
Versions: 1 2 3 4 5 6 7 8 9 10 11 12 13 14 15 16 17 18 19 20 21 22 23 24 25 26 27 28 29 30 31 32 33 34 35 36 37 38 39 40 41 42 43 44 45 46 47 48 49 50
000
ASUS43 KFSD 230510
RWRSD

WEATHER ROUNDUP FOR SOUTH DAKOTA
NATIONAL WEATHER SERVICE SIOUX FALLS SD
1200 AM CDT TUE AUG 23 2016

NOTE: "FAIR" INDICATES FEW OR NO CLOUDS BELOW 12,000 FEET WITH NO
SIGNIFICANT WEATHER AND/OR OBSTRUCTIONS TO VISIBILITY.


SDZ001>005-009-010-012>017-230600-
NORTHWEST AND NORTH CENTRAL SOUTH DAKOTA

CITY           SKY/WX    TMP DP  RH WIND       PRES   REMARKS
BUFFALO          N/A     72  51  47 W5        29.62S
FAITH            N/A     73  50  44 SE8       29.66R
MOBRIDGE       PTCLDY    81  61  50 S13       29.58S
$$

SDZ012>016-024>037-041>051-057-063-072>074-230600-
SOUTHWEST AND SOUTH CENTRAL SOUTH DAKOTA

CITY           SKY/WX    TMP DP  RH WIND       PRES   REMARKS
RAPID CTY ARPT CLOUDY    64  46  52 SE6       29.69S
PIERRE         PTCLDY    80  58  46 S18G26    29.65S
CUSTER         CLOUDY    70  30  22 W3        29.90S
ELLSWORTH AFB  CLEAR     70  43  37 SW7       29.69S
PHILIP         PTCLDY    81  57  43 SW13G21   29.66R
PINE RIDGE     CLEAR     75  57  53 S13G22    29.78R
WINNER         FAIR      81  61  50 S26G38    29.73S
$$

SDZ004>011-016>023-039-040-230600-
NORTHEAST SOUTH DAKOTA

CITY           SKY/WX    TMP DP  RH WIND       PRES   REMARKS
ABERDEEN       PTCLDY    75  64  68 S18G29    29.69R
WATERTOWN      CLOUDY    72  63  73 S20G26    29.80S
BROOKINGS      CLOUDY    71  61  70 S15         N/A
SISSETON         N/A     77  64  64 S13G23    29.70F
$$

SDZ017-020-022-023-036>040-048>070-230600-
SOUTHEAST SOUTH DAKOTA

CITY           SKY/WX    TMP DP  RH WIND       PRES   REMARKS
SIOUX FALLS    MOCLDY    74  61  63 S21G31    29.88S
HURON          PTCLDY    75  63  66 S18G28    29.74S
CHAMBERLAIN    MOCLDY    82  63  52 S20G30    29.73S
MITCHELL       PTCLDY    75  62  64 S15G25    29.79S
YANKTON        CLOUDY    73  57  56 S16G24    29.85S
$$

ABBREVIATIONS USED IN REMARKS
   TC - TEMPERATURE IN CELSIUS
  WCI - WIND CHILL INDEX
   HX - HEAT INDEX
  VSB - VISIBILITY





USA.gov is the U.S. government's official web portal to all federal, state and local government web resources and services.